[[{"header":{"parameterUnit":"m.s-1","parameterCategory":1,"la1":30.2991,"la2":30.254,"lo1":-89.0895,"lo2":-89.0444,"dy":0.0017,"dx":0.0017,"nx":28,"ny":28,"refTime":"2025-12-31T03:00:00:Z","depth":0,"parameterNumber":2,"parameterNumberName":"U-component_of_WINDS"},"data":[0,0,0,0,0,0,0,0,0,0,0,0,0,0,0,0,0,0,0,0,0,0,0,0,0,0,0,0,0,0,0,0,0,0,0,0,0,0,0,0,0,0,0,0,0,0,0,0,0,0,0,0,0,0,0,0,0,0,3.4733,3.4734,0,3.4846,3.4848,3.4849,3.4827,3.4825,3.4823,3.4821,3.4942,3.4947,3.4952,0,0,0,0,0,0,0,0,0,0,0,0,0,3.4501,3.4505,3.4732,3.4734,3.4735,3.4846,3.4848,3.4849,3.4828,3.4825,3.4822,3.482,3.494,3.4946,3.4952,0,0,0,0,0,0,0,0,0,0,0,0,0,3.4607,3.4507,3.4732,3.4738,3.4739,3.4846,3.4848,3.485,3.4828,3.4825,3.4822,3.4819,3.4938,3.4945,3.4953,3.5063,0,0,3.4977,3.498,0,0,0,0,0,0,0,0,3.4601,3.4616,3.4735,3.4737,3.4739,3.4819,3.481,3.4921,3.4829,3.4794,3.4821,3.4817,3.4904,3.4914,3.4942,3.5068,3.5073,3.4977,3.4982,3.4985,3.4987,0,0,0,0,0,0,0,3.4594,3.4611,3.4778,3.4737,3.474,3.4736,3.4748,3.4831,3.4865,3.4797,3.4796,3.4809,3.4904,3.4935,3.4945,3.5075,3.4977,3.4984,3.4989,3.4992,3.53,3.5304,0,0,0,0,0,0,3.4584,3.4605,3.4774,3.4781,3.4661,3.4743,3.4756,3.4797,3.4864,3.4871,3.4812,3.4808,3.4923,3.4936,3.4949,3.5084,3.4985,3.4992,3.4997,3.5297,3.5301,3.5305,0,0,0,0,0,0,3.4579,3.4599,3.4769,3.4693,3.4714,3.475,3.4796,3.4801,3.4831,3.4875,3.4882,3.4837,3.4921,3.4938,3.5035,3.5088,3.4996,3.5003,3.5292,3.5298,3.5303,3.5353,0,0,0,0,0,0,3.4572,3.4598,3.4638,3.4694,3.4718,3.4852,3.48,3.4805,3.4844,3.484,3.49,3.4907,3.492,3.5024,3.5043,3.5097,3.5009,3.5288,3.5295,3.5301,3.5347,3.536,3.537,0,0,0,0,0,3.4564,3.4648,3.464,3.4661,3.4769,3.4855,3.4869,3.4881,3.4848,3.4891,3.492,3.4905,3.5079,3.5034,3.5055,3.5112,3.5285,3.5293,3.5301,3.5342,3.5357,3.537,0,0,0,0,0,0,3.4599,3.4655,3.4647,3.4751,3.4798,3.4851,3.4904,3.4897,3.4955,3.4949,3.4962,3.4976,3.5075,3.5103,3.5052,3.5223,3.5177,3.519,3.5201,3.5216,3.5228,3.522,3.5015,0,0,0,0,0,3.4618,3.4681,3.4728,3.4815,3.4839,3.4868,3.4905,3.4911,3.4961,3.4981,3.5016,3.5067,3.5133,3.5176,3.5239,3.5351,3.5365,3.5401,3.5413,3.5422,3.5433,3.5497,3.5514,3.5331,3.5331,3.5331,0,0,3.4659,3.4698,3.4737,3.4823,3.486,3.4927,3.4885,3.4957,3.5008,3.4992,3.5086,3.5114,3.5171,3.5277,3.5325,3.5303,3.5487,3.5432,3.5439,3.5446,3.5507,3.5525,3.554,3.5337,3.5336,3.5335,0,0,3.4769,3.4803,3.4881,3.4919,3.4976,3.4995,3.5014,3.5068,3.5086,3.518,3.5171,3.5232,3.5345,3.5387,3.5423,3.5551,3.5541,3.5571,3.5633,3.5695,3.5709,3.5722,3.577,3.5787,3.5582,3.5582,3.5582,0,3.4813,3.4912,3.4922,3.4996,3.5036,3.5024,3.5104,3.5141,3.5216,3.5245,3.5219,3.5362,3.5399,3.5515,3.5547,3.5576,3.56,3.5565,3.5706,3.5719,3.5732,3.5777,3.5795,3.5585,3.5585,3.5585,3.5584,0,3.4966,3.5035,3.5091,3.5163,3.5209,3.5285,3.5309,3.5354,3.5356,3.5378,3.5476,3.5521,3.5594,3.5622,3.5624,3.574,3.5725,3.5702,3.5657,3.5752,3.5796,3.5813,3.559,3.5589,3.5588,3.5587,0,0,3.5099,3.5177,3.5198,3.5231,3.5294,3.5349,3.5426,3.5497,3.5537,3.5589,3.5656,3.5753,3.5733,3.5774,3.5782,3.5836,3.5938,3.5808,3.5809,3.5832,3.6071,3.6088,3.6108,3.5931,3.5935,3.5937,3.6066,0,3.5216,3.5351,3.5364,3.5486,3.5551,3.5543,3.561,3.5657,3.5681,3.5742,3.5768,3.5837,3.5805,3.583,3.5883,3.5914,3.5986,3.5905,3.5996,3.5999,3.5983,3.613,3.6148,3.6268,3.6083,3.6086,3.6088,0,3.537,3.5427,3.5556,3.5612,3.564,3.57,3.5767,3.5824,3.5879,3.5892,3.5939,3.594,3.6022,3.5973,3.6087,3.6032,3.607,3.6091,3.6096,3.6106,3.605,3.6146,3.6306,3.6324,3.6115,3.6113,3.6111,0,3.5458,3.5567,3.5658,3.5687,3.5754,3.5797,3.5827,3.5878,3.5921,3.598,3.6008,3.6076,3.6114,3.6168,3.6188,3.615,3.6303,3.6255,3.6319,3.6318,3.6352,3.635,3.6522,3.6374,3.6374,3.6374,3.6373,0,3.5588,3.5667,3.5699,3.5755,3.5845,3.5859,3.5948,3.5977,3.6022,3.6086,3.6083,3.6143,3.6165,3.6229,3.6246,3.634,3.6356,3.6371,3.6375,3.6373,3.6371,3.6399,3.6391,3.6378,3.6377,3.6376,3.6376,0,3.5701,3.5724,3.5824,3.5879,3.5895,3.5959,3.6008,3.6064,3.6086,3.6167,3.6187,3.6224,3.6299,3.6325,3.6416,3.6428,3.6538,3.6534,3.6519,3.652,3.6584,3.6578,3.6781,3.6809,3.6641,3.6643,3.6644,0,3.5783,3.5844,3.5906,3.5948,3.598,3.6047,3.609,3.6108,3.6153,3.6221,3.6269,3.6344,3.6405,3.6527,3.6563,3.6634,3.6633,3.6699,3.6644,3.664,3.6636,3.6633,3.664,3.671,3.6712,3.6713,3.6714,0,3.5927,3.5936,3.5998,3.6065,3.6117,3.6171,3.6223,3.6258,3.6284,3.6336,3.6413,3.646,3.6554,3.663,3.6703,3.6735,3.6731,3.6731,3.675,3.6749,3.6739,3.6747,3.655,3.6727,3.6725,3.6725,3.6724,3.6723,3.6028,3.6083,3.6136,3.6206,3.6247,3.6296,3.6352,3.6382,3.6446,3.6524,3.653,3.6614,3.667,3.6767,3.6803,3.6871,3.6852,3.6879,3.6886,3.6893,3.6899,3.6727,3.6884,3.6884,3.6883,3.6883,3.6883,0,3.6174,3.6207,3.6272,3.6345,3.6401,3.639,3.6447,3.6495,3.6569,3.662,3.6681,3.6771,3.6844,3.6887,3.6961,3.7007,3.7007,3.7026,3.7024,3.7032,3.691,3.6887,3.7025,3.7025,3.7025,3.7025,3.7025,3.7025,3.6256,3.6349,3.6365,3.6479,3.6512,3.6594,3.6628,3.6675,3.6716,3.6816,3.6877,3.6904,3.6953,3.7031,3.7099,3.7109,3.7138,3.716,3.7169,3.7055,3.704,3.7026,3.7005,3.7165,3.7165,3.7285,3.7286,3.7287]},{"header":{"parameterUnit":"m.s-1","parameterCategory":1,"la1":30.2991,"la2":30.254,"lo1":-89.0895,"lo2":-89.0444,"dy":0.0017,"dx":0.0017,"nx":28,"ny":28,"refTime":"2025-12-31T03:00:00:Z","depth":0,"parameterNumber":3,"parameterNumberName":"V-component_of_WINDS"},"data":[0,0,0,0,0,0,0,0,0,0,0,0,0,0,0,0,0,0,0,0,0,0,0,0,0,0,0,0,0,0,0,0,0,0,0,0,0,0,0,0,0,0,0,0,0,0,0,0,0,0,0,0,0,0,0,0,0,0,0.4646,0.4646,0,0.463,0.463,0.463,0.4607,0.4607,0.4606,0.4606,0.4589,0.4589,0.4588,0,0,0,0,0,0,0,0,0,0,0,0,0,0.4655,0.4655,0.4646,0.4646,0.4646,0.463,0.463,0.463,0.4607,0.4607,0.4606,0.4606,0.4589,0.4589,0.4588,0,0,0,0,0,0,0,0,0,0,0,0,0,0.4646,0.4655,0.4646,0.4633,0.4631,0.463,0.463,0.463,0.4607,0.4607,0.4606,0.4606,0.4589,0.4589,0.4588,0.4599,0,0,0.4588,0.4588,0,0,0,0,0,0,0,0,0.4647,0.4646,0.4635,0.4634,0.4632,0.462,0.4627,0.4619,0.4607,0.4616,0.4606,0.4605,0.46,0.4598,0.4597,0.4598,0.4598,0.4588,0.4588,0.4588,0.4588,0,0,0,0,0,0,0,0.4648,0.4647,0.464,0.4635,0.4633,0.4627,0.4625,0.4625,0.4611,0.4616,0.4614,0.4612,0.4599,0.4597,0.4596,0.4597,0.4588,0.4588,0.4588,0.4588,0.4605,0.4606,0,0,0,0,0,0,0.465,0.4647,0.464,0.4639,0.4638,0.4627,0.4625,0.4624,0.4611,0.4609,0.4613,0.4611,0.4597,0.4596,0.4595,0.4606,0.4588,0.4588,0.4588,0.4604,0.4605,0.4606,0,0,0,0,0,0,0.4651,0.465,0.4641,0.4643,0.4641,0.4628,0.4627,0.4624,0.4623,0.4609,0.4607,0.4614,0.4597,0.4596,0.4598,0.4605,0.4588,0.4587,0.4604,0.4605,0.4605,0.4628,0,0,0,0,0,0,0.4651,0.465,0.4655,0.4643,0.4641,0.4645,0.4628,0.4625,0.4623,0.462,0.4609,0.4607,0.4596,0.4598,0.4598,0.4605,0.4587,0.4603,0.4604,0.4605,0.4627,0.4629,0.4632,0,0,0,0,0,0.4652,0.4662,0.4655,0.4654,0.4647,0.4645,0.4644,0.4632,0.4623,0.4627,0.4618,0.4607,0.4604,0.4599,0.4598,0.4605,0.4603,0.4604,0.4605,0.4625,0.4629,0.4632,0,0,0,0,0,0,0.4675,0.466,0.4653,0.466,0.4654,0.4641,0.4646,0.4636,0.4632,0.4631,0.4615,0.4613,0.4617,0.4611,0.4605,0.4614,0.4602,0.4603,0.4617,0.4621,0.4623,0.4624,0.4587,0,0,0,0,0,0.4681,0.4681,0.4668,0.4676,0.4673,0.466,0.4659,0.465,0.4643,0.464,0.4632,0.4625,0.4623,0.4621,0.4618,0.4625,0.4622,0.463,0.4632,0.4635,0.4636,0.4638,0.464,0.461,0.461,0.461,0,0,0.4693,0.4685,0.4686,0.468,0.4674,0.4674,0.4658,0.4659,0.4659,0.4641,0.4642,0.4635,0.4627,0.4631,0.4633,0.4627,0.4643,0.4636,0.4638,0.4638,0.4639,0.4642,0.4645,0.4611,0.4611,0.461,0,0,0.4715,0.471,0.4715,0.4709,0.4701,0.4692,0.4693,0.4682,0.4677,0.4678,0.4664,0.4663,0.4659,0.4653,0.465,0.4668,0.4658,0.4668,0.4682,0.4684,0.4686,0.4688,0.4694,0.4696,0.4669,0.4669,0.4669,0,0.4732,0.4732,0.4719,0.472,0.4717,0.4701,0.4705,0.47,0.4691,0.4689,0.4682,0.4676,0.4669,0.4672,0.4676,0.4674,0.4674,0.4669,0.4687,0.4689,0.4691,0.4696,0.4698,0.467,0.467,0.467,0.467,0,0.4752,0.4752,0.4757,0.4748,0.4746,0.4749,0.4735,0.4734,0.4725,0.4717,0.4717,0.4708,0.4703,0.4703,0.4694,0.4703,0.4699,0.469,0.4678,0.4695,0.47,0.4702,0.4672,0.4671,0.4671,0.4671,0,0,0.4789,0.4772,0.4774,0.477,0.4759,0.4758,0.476,0.4754,0.4753,0.4747,0.4747,0.4744,0.4735,0.4731,0.4721,0.4723,0.4737,0.4713,0.4712,0.4717,0.4745,0.4752,0.4754,0.4729,0.473,0.473,0.4745,0,0.4808,0.4811,0.4798,0.4804,0.4803,0.4786,0.4787,0.478,0.4772,0.477,0.476,0.4758,0.4746,0.4744,0.4745,0.4735,0.4742,0.4734,0.4729,0.4729,0.4731,0.4757,0.4764,0.4779,0.4747,0.4747,0.4748,0,0.4832,0.4827,0.4832,0.482,0.4819,0.482,0.4813,0.4812,0.4802,0.4796,0.4791,0.478,0.4779,0.4768,0.4766,0.4761,0.4758,0.4752,0.4753,0.4752,0.4739,0.4756,0.4784,0.4786,0.475,0.475,0.475,0,0.4857,0.4852,0.4854,0.4851,0.4837,0.4838,0.4832,0.4822,0.4819,0.4813,0.481,0.4804,0.4801,0.4796,0.4782,0.4775,0.4782,0.477,0.4776,0.4776,0.4778,0.4778,0.4806,0.4777,0.4777,0.4777,0.4777,0,0.4881,0.4884,0.4865,0.4867,0.487,0.4855,0.4858,0.485,0.4842,0.484,0.4826,0.4825,0.4807,0.4804,0.4794,0.4793,0.4792,0.4786,0.4783,0.4787,0.4788,0.4785,0.4783,0.4778,0.4778,0.4777,0.4777,0,0.491,0.4897,0.4898,0.4884,0.4881,0.4884,0.4871,0.4871,0.4862,0.486,0.4859,0.4844,0.4839,0.4825,0.4817,0.481,0.4812,0.4807,0.4815,0.4813,0.482,0.482,0.4846,0.4849,0.482,0.482,0.482,0,0.4925,0.4927,0.4913,0.4912,0.4906,0.4904,0.49,0.4885,0.4882,0.4871,0.4872,0.4867,0.4861,0.4854,0.4842,0.4835,0.4829,0.4839,0.4828,0.4831,0.4828,0.4828,0.4827,0.4841,0.4842,0.4842,0.4842,0,0.4953,0.4947,0.4943,0.4936,0.4933,0.4927,0.492,0.4919,0.4902,0.49,0.4895,0.489,0.4881,0.4875,0.4866,0.4859,0.4847,0.4846,0.4846,0.485,0.4855,0.4852,0.4821,0.4845,0.4845,0.4845,0.4844,0.4844,0.4975,0.4976,0.4966,0.4962,0.4955,0.4949,0.4948,0.4938,0.4934,0.4926,0.4917,0.4912,0.4902,0.4888,0.4882,0.4878,0.4872,0.4873,0.4873,0.4874,0.4875,0.4856,0.4876,0.4876,0.4876,0.4876,0.4876,0,0.5002,0.4994,0.4991,0.4982,0.4978,0.4968,0.4959,0.4957,0.4953,0.4944,0.4939,0.4932,0.4926,0.4913,0.4905,0.4904,0.4898,0.4902,0.4902,0.49,0.4882,0.4881,0.4907,0.4907,0.4907,0.4907,0.4907,0.4907,0.5015,0.5016,0.5008,0.5004,0.4997,0.4993,0.4989,0.4982,0.4975,0.4969,0.4963,0.4955,0.4944,0.4935,0.4928,0.4924,0.4922,0.4927,0.4922,0.4905,0.4902,0.4899,0.4898,0.4927,0.4927,0.494,0.494,0.494]}]]